Terug naar catalogus

THOR ABLESTAR DEB

ActiefLEO
NORAD 234·DEBRIS·🇺🇸 United States

Gelanceerd Jun 29, 1961 vanaf Cape Canaveral Space Force Station

Loading…

Volgende Passages (komende 24 uur)

TLE

VersSource: Space-Track

Epoch: Sep 13, 2026, 10:28 UTC

1 00234U 61015BS  26256.43675482  .00000185  00000-0  16306-3 0  9995
2 00234  66.8760 301.5682 0063497  61.9675 298.7815 14.04148047323823

Volg THOR ABLESTAR DEB in realtime met AllMySat

Download on the App Store